Location: Chomutov
(50.4500°N, 13.4333°E)
Time: 18:52:44
(UTC+02:00)

FO-29 - Pass Details

Date: 04 October 2021
Orbit: 800 x 1321 km, 98.6° (Epoch: 23 October)

Event Time Altitude Azimuth Distance (km) Brightness Sun altitude
Exits shadow 23:27:47 19° 254° (WSW) 2,729 11.8 -40.7°
Maximum altitude 23:30:03 21° 276° (W) 2,595 11.9 -40.9°
Drops below altitude 10° 23:35:42 10° 322° (NW) 3,329 12.9 -41.3°
Sets 23:39:16 0° 338° (NNW) 4,259 13.7 -41.6°
